Homestead AFB, FL

8:25 PM EST on November 18, 2019 (GMT -0500)
Dade County-Homestead Regional

Weather History for KHST - September, 2019

Change the Weather History Date:

Saturday, September 21, 2019

  Actual Average Record
Temperature  
Mean Temperature 80 °F -  
Max Temperature 85 °F 89 °F 95 °F (1942)
Min Temperature 77 °F 72 °F 65 °F (1932)
Cooling Degree Days 16    
Growing Degree Days 30 (Base 50)    
Moisture  
Dew Point 75 °F    
Average Humidity 86    
Maximum Humidity 94    
Minimum Humidity 74    
Precipitation  
Precipitation 0.36 in - - ()
Sea Level Pressure  
Sea Level Pressure 30.02 in    
Wind  
Wind Speed 17 mph (NE)    
Max Wind Speed 29 mph    
Max Gust Speed 38 mph    
Visibility 9 miles    
Events Rain    
Averages and records for this station are not official NWS values.
T = Trace of Precipitation, MM = Missing Value Source: NWS Daily Summary

Daily Weather History Graph

Daily Weather History Graph

Search for Another Location

Airport or City:

Astronomy

Sep. 21, 2019 Rise Set
Actual Time 7:09 AM EDT 7:19 PM EDT
Civil Twilight 6:46 AM EDT 7:42 PM EDT
Nautical Twilight 6:20 AM EDT 8:08 PM EDT
Astronomical Twilight 5:53 AM EDT 8:35 PM EDT
Moon No Moon Rise 1:36 PM EDT (9/21)
Length of Visible Light 12h 55m
Length of Day
12h 09m
Waning Gibbous, 55% of the Moon is Illuminated
Sep 21
Waning Gibbous
Sep 21
Last Quarter
Sep 28
New
Oct 5
First Quarter
Oct 13
Full

Hourly Weather History & Observations

Time (EDT) Temp. Heat Index Dew Point Humidity Pressure Visibility Wind Dir Wind Speed Gust Speed Precip Events Conditions
12:56 AM 81.1 °F 86.4 °F 73.6 °F 78% 30.02 in 10.0 mi NE 16.1 mph 28.8 mph N/A   Overcast
1:56 AM 80.8 °F 85.6 °F 73.2 °F 78% 30.01 in 10.0 mi NE 16.1 mph 27.6 mph N/A   Mostly Cloudy
2:10 AM 80.6 °F 85.4 °F 73.4 °F 79% 30.01 in 10.0 mi NE 21.9 mph 28.8 mph N/A Rain Light Rain
2:21 AM 80.6 °F 85.4 °F 73.4 °F 79% 30.01 in 10.0 mi NE 18.4 mph - N/A   Overcast
2:56 AM 80.8 °F 85.8 °F 73.6 °F 79% 30.01 in 10.0 mi NE 13.8 mph 23.0 mph 0.00 in   Mostly Cloudy
3:06 AM 80.6 °F 85.4 °F 73.4 °F 79% 30.01 in 10.0 mi ENE 16.1 mph 20.7 mph N/A   Overcast
3:26 AM 80.6 °F 85.4 °F 73.4 °F 79% 30.00 in 10.0 mi ENE 16.1 mph 25.3 mph N/A   Scattered Clouds
3:56 AM 80.4 °F 85.3 °F 73.9 °F 81% 30.00 in 10.0 mi NE 13.8 mph 23.0 mph N/A   Scattered Clouds
4:11 AM 80.6 °F 85.4 °F 73.4 °F 79% 30.00 in 10.0 mi ENE 16.1 mph 20.7 mph N/A   Mostly Cloudy
4:16 AM 80.6 °F 85.4 °F 73.4 °F 79% 30.00 in 10.0 mi ENE 15.0 mph 20.7 mph N/A   Scattered Clouds
4:56 AM 80.8 °F 85.6 °F 73.2 °F 78% 29.99 in 10.0 mi ENE 13.8 mph 21.9 mph N/A   Mostly Cloudy
5:32 AM 80.6 °F 86.2 °F 75.2 °F 84% 30.00 in 10.0 mi NE 16.1 mph 23.0 mph N/A Rain Rain
5:48 AM 78.8 °F - 75.2 °F 89% 30.00 in 10.0 mi NE 12.7 mph - N/A   Overcast
5:56 AM 78.8 °F - 74.5 °F 87% 30.00 in 10.0 mi NE 12.7 mph - 0.00 in   Mostly Cloudy
6:54 AM 80.6 °F 86.2 °F 75.2 °F 84% 30.01 in 10.0 mi NE 11.5 mph - N/A Rain Light Rain
6:56 AM 80.1 °F 84.8 °F 74.7 °F 83% 30.01 in 10.0 mi NE 12.7 mph - 0.00 in Rain Light Rain
7:04 AM 78.8 °F - 75.2 °F 89% 30.01 in 10.0 mi NE 12.7 mph - N/A   Scattered Clouds
7:56 AM 79.9 °F - 75.6 °F 87% 30.02 in 10.0 mi NE 17.3 mph - 0.00 in   Mostly Cloudy
8:06 AM 80.6 °F 86.2 °F 75.2 °F 84% 30.02 in 10.0 mi NNE 16.1 mph - N/A   Mostly Cloudy
8:26 AM 80.6 °F 86.2 °F 75.2 °F 84% 30.03 in 10.0 mi NNE 16.1 mph - N/A   Overcast
8:31 AM 80.6 °F 86.2 °F 75.2 °F 84% 30.04 in 10.0 mi NE 15.0 mph - N/A   Light Drizzle
8:46 AM 80.6 °F 87.1 °F 77.0 °F 89% 30.04 in 10.0 mi NE 13.8 mph - N/A   Overcast
8:56 AM 80.8 °F 87.2 °F 76.5 °F 87% 30.04 in 10.0 mi NE 15.0 mph - 0.00 in   Overcast
9:11 AM 80.6 °F 86.2 °F 75.2 °F 84% 30.05 in 10.0 mi NE 20.7 mph 25.3 mph N/A   Overcast
9:16 AM 80.6 °F 86.2 °F 75.2 °F 84% 30.05 in 10.0 mi NE 17.3 mph 25.3 mph N/A   Overcast
9:23 AM 80.6 °F 86.2 °F 75.2 °F 84% 30.05 in 10.0 mi NNE 11.5 mph - N/A Rain Light Rain
9:33 AM 80.6 °F 87.1 °F 77.0 °F 89% 30.06 in 10.0 mi NE 13.8 mph - N/A   Mostly Cloudy
9:56 AM 82.0 °F 89.9 °F 76.6 °F 84% 30.06 in 10.0 mi NE 13.8 mph - 0.00 in   Overcast
10:01 AM 82.4 °F 90.9 °F 77.0 °F 84% 30.06 in 10.0 mi NE 15.0 mph - N/A   Mostly Cloudy
10:06 AM 82.4 °F 90.9 °F 77.0 °F 84% 30.06 in 10.0 mi NE 16.1 mph - N/A   Overcast
10:11 AM 84.2 °F 94.1 °F 77.0 °F 79% 30.06 in 10.0 mi NE 15.0 mph - N/A   Overcast
10:56 AM 83.8 °F 92.5 °F 76.1 °F 77% 30.06 in 10.0 mi NNE 18.4 mph 26.5 mph N/A   Mostly Cloudy
10:57 AM 84.2 °F 94.1 °F 77.0 °F 79% 30.06 in 10.0 mi NE 18.4 mph 26.5 mph N/A   Light Drizzle
11:05 AM 84.2 °F 94.1 °F 77.0 °F 79% 30.05 in 10.0 mi NE 19.6 mph 26.5 mph N/A   Mostly Cloudy
11:14 AM 84.2 °F 94.1 °F 77.0 °F 79% 30.06 in 10.0 mi NE 19.6 mph 29.9 mph N/A Rain Light Rain
11:24 AM 84.2 °F 94.1 °F 77.0 °F 79% 30.05 in 10.0 mi NE 16.1 mph 27.6 mph N/A Rain Rain
11:40 AM 84.2 °F 94.1 °F 77.0 °F 79% 30.05 in 10.0 mi NE 20.7 mph 28.8 mph N/A   Mostly Cloudy
11:45 AM 84.2 °F 94.1 °F 77.0 °F 79% 30.04 in 10.0 mi NNE 23.0 mph 29.9 mph N/A   Mostly Cloudy
11:56 AM 84.6 °F 93.9 °F 76.1 °F 76% 30.04 in 10.0 mi NE 20.7 mph - 0.01 in   Mostly Cloudy
12:32 PM 84.2 °F 92.3 °F 75.2 °F 74% 30.05 in 9.0 mi NE 26.5 mph 33.4 mph N/A Rain Light Rain
12:37 PM 80.6 °F 86.2 °F 75.2 °F 84% 30.05 in 5.0 mi NNE 28.8 mph 38.0 mph N/A Rain Heavy Rain
12:41 PM 77.0 °F - 73.4 °F 89% 30.04 in 1.5 mi NNE 25.3 mph 38.0 mph N/A Rain Heavy Rain
12:42 PM 77.0 °F - 73.4 °F 89% 30.05 in 1.1 mi NNE 25.3 mph 38.0 mph N/A Rain Heavy Rain
12:47 PM 77.0 °F - 73.4 °F 89% 30.05 in 2.8 mi NNE 19.6 mph 31.1 mph N/A Rain Heavy Rain
12:52 PM 77.0 °F - 75.2 °F 94% 30.04 in 8.0 mi NE 17.3 mph 24.2 mph N/A Rain Light Rain
12:56 PM 77.0 °F - 74.5 °F 92% 30.05 in 10.0 mi NE 16.1 mph 24.2 mph 0.15 in Rain Light Rain
1:11 PM 78.8 °F - 77.0 °F 94% 30.04 in 10.0 mi NE 15.0 mph - N/A   Scattered Clouds
1:31 PM 80.6 °F 87.1 °F 77.0 °F 89% 30.03 in 10.0 mi NNE 15.0 mph - N/A   Mostly Cloudy
1:33 PM 80.6 °F 87.1 °F 77.0 °F 89% 30.03 in 9.0 mi NNE 16.1 mph 25.3 mph N/A Rain Light Rain
1:43 PM 80.6 °F 87.1 °F 77.0 °F 89% 30.03 in 9.0 mi NE 15.0 mph 26.5 mph N/A   Mostly Cloudy
1:56 PM 82.4 °F 90.9 °F 77.0 °F 84% 30.02 in 10.0 mi NE 20.7 mph 24.2 mph 0.01 in   Mostly Cloudy
2:11 PM 82.4 °F 89.5 °F 75.2 °F 79% 30.02 in 10.0 mi NE 21.9 mph 31.1 mph N/A   Mostly Cloudy
2:18 PM 82.4 °F 90.9 °F 77.0 °F 84% 30.01 in 10.0 mi NNE 24.2 mph 28.8 mph N/A   Light Drizzle
2:22 PM 82.4 °F 90.9 °F 77.0 °F 84% 30.01 in 10.0 mi NNE 19.6 mph 27.6 mph N/A   Overcast
2:24 PM 82.4 °F 90.9 °F 77.0 °F 84% 30.01 in 10.0 mi NE 23.0 mph 27.6 mph N/A Rain Light Rain
2:44 PM 78.8 °F - 75.2 °F 89% 30.02 in 7.0 mi NE 21.9 mph 32.2 mph N/A Rain Light Rain
2:56 PM 78.3 °F - 75.4 °F 91% 30.02 in 5.0 mi NE 18.4 mph 29.9 mph 0.03 in Rain Light Rain
3:04 PM 78.8 °F - 75.2 °F 89% 30.01 in 10.0 mi NNE 13.8 mph - N/A   Overcast
3:24 PM 80.6 °F 87.1 °F 77.0 °F 89% 30.00 in 10.0 mi NNE 15.0 mph - N/A   Overcast
3:44 PM 82.4 °F 90.9 °F 77.0 °F 84% 30.00 in 10.0 mi NNE 21.9 mph - N/A   Overcast
3:56 PM 82.0 °F 89.7 °F 76.3 °F 83% 30.00 in 10.0 mi NNE 23.0 mph 28.8 mph 0.01 in   Overcast
4:07 PM 82.4 °F 90.9 °F 77.0 °F 84% 30.00 in 10.0 mi NE 27.6 mph 29.9 mph N/A Rain Light Rain
4:26 PM 80.6 °F 87.1 °F 77.0 °F 89% 29.98 in 10.0 mi NNE 20.7 mph 24.2 mph N/A   Overcast
4:44 PM 82.4 °F 89.5 °F 75.2 °F 79% 29.99 in 9.0 mi NE 17.3 mph 31.1 mph N/A Rain Rain
4:54 PM 78.8 °F - 77.0 °F 94% 29.99 in 6.0 mi NE 18.4 mph 28.8 mph N/A Rain Light Rain
4:56 PM 79.2 °F - 75.9 °F 90% 29.99 in 7.0 mi NE 19.6 mph 28.8 mph 0.02 in Rain Light Rain
5:01 PM 78.8 °F - 75.2 °F 89% 29.99 in 10.0 mi NE 23.0 mph 32.2 mph N/A Rain Light Rain
5:04 PM 78.8 °F - 75.2 °F 89% 30.00 in 10.0 mi NE 19.6 mph 32.2 mph N/A   Overcast
5:54 PM 78.8 °F - 75.2 °F 89% 30.01 in 10.0 mi NNE 13.8 mph - N/A   Mostly Cloudy
5:56 PM 78.3 °F - 74.7 °F 89% 30.01 in 10.0 mi NE 12.7 mph - 0.00 in   Mostly Cloudy
6:21 PM 78.8 °F - 75.2 °F 89% 30.01 in 10.0 mi NE 18.4 mph 23.0 mph N/A   Overcast
6:34 PM 78.8 °F - 75.2 °F 89% 30.01 in 10.0 mi NE 15.0 mph - N/A   Light Drizzle
6:51 PM 77.0 °F - 75.2 °F 94% 30.00 in 10.0 mi NE 9.2 mph - N/A   Mostly Cloudy
6:53 PM 77.0 °F - 75.2 °F 94% 30.00 in 10.0 mi NNE 9.2 mph - N/A   Light Drizzle
6:56 PM 77.5 °F - 75.0 °F 92% 30.00 in 10.0 mi NE 11.5 mph - 0.00 in Rain Light Rain
7:05 PM 77.0 °F - 75.2 °F 94% 30.01 in 10.0 mi NE 11.5 mph - N/A   Partly Cloudy
7:22 PM 78.8 °F - 75.2 °F 89% 30.00 in 10.0 mi NE 16.1 mph - N/A Rain Rain
7:32 PM 78.8 °F - 75.2 °F 89% 30.00 in 8.0 mi NE 15.0 mph 20.7 mph N/A Rain Light Rain
7:40 PM 78.8 °F - 75.2 °F 89% 30.00 in 10.0 mi NE 10.4 mph 20.7 mph N/A   Mostly Cloudy
7:46 PM 77.0 °F - 75.2 °F 94% 30.00 in 10.0 mi NE 10.4 mph - N/A Rain Light Rain
7:56 PM 77.5 °F - 75.0 °F 92% 30.00 in 9.0 mi NE 10.4 mph - 0.02 in Rain Light Rain
8:08 PM 77.0 °F - 75.2 °F 94% 29.99 in 10.0 mi NNE 16.1 mph 24.2 mph N/A   Overcast
8:33 PM 78.8 °F - 75.2 °F 89% 29.99 in 10.0 mi NE 19.6 mph 26.5 mph N/A   Mostly Cloudy
8:48 PM 78.8 °F - 75.2 °F 89% 30.00 in 10.0 mi NNE 20.7 mph - N/A   Mostly Cloudy
8:52 PM 78.8 °F - 75.2 °F 89% 30.00 in 10.0 mi NE 18.4 mph 25.3 mph N/A Rain Light Rain
8:56 PM 79.2 °F - 74.8 °F 87% 30.00 in 9.0 mi NE 24.2 mph 29.9 mph 0.04 in Rain Light Rain
9:01 PM 78.8 °F - 75.2 °F 89% 30.02 in 5.0 mi NE 17.3 mph 29.9 mph N/A Rain Heavy Rain
9:11 PM 78.8 °F - 75.2 °F 89% 30.02 in 9.0 mi NE 15.0 mph - N/A Rain Light Rain
9:12 PM 78.8 °F - 75.2 °F 89% 30.02 in 10.0 mi NE 17.3 mph 24.2 mph N/A   Overcast
9:22 PM 78.8 °F - 75.2 °F 89% 30.01 in 10.0 mi NNE 17.3 mph 24.2 mph N/A   Mostly Cloudy
9:27 PM 78.8 °F - 75.2 °F 89% 30.02 in 10.0 mi NE 13.8 mph - N/A   Mostly Cloudy
9:32 PM 78.8 °F - 75.2 °F 89% 30.02 in 10.0 mi NE 12.7 mph - N/A Rain Light Rain
9:37 PM 78.8 °F - 75.2 °F 89% 30.02 in 7.0 mi NE 13.8 mph - N/A Rain Heavy Rain
9:56 PM 77.2 °F - 74.7 °F 92% 30.03 in 10.0 mi NE 15.0 mph 25.3 mph 0.06 in   Mostly Cloudy
10:01 PM 77.0 °F - 75.2 °F 94% 30.03 in 10.0 mi NE 12.7 mph - N/A   Overcast
10:03 PM 77.0 °F - 75.2 °F 94% 30.03 in 10.0 mi NE 11.5 mph - N/A   Light Drizzle
10:12 PM 78.8 °F - 75.2 °F 89% 30.03 in 10.0 mi NE 16.1 mph 20.7 mph N/A   Overcast
10:22 PM 78.8 °F - 75.2 °F 89% 30.03 in 10.0 mi NE 18.4 mph 24.2 mph N/A Rain Light Rain
10:32 PM 78.8 °F - 75.2 °F 89% 30.04 in 9.0 mi NE 13.8 mph 23.0 mph N/A Rain Light Rain
10:34 PM 78.8 °F - 75.2 °F 89% 30.03 in 10.0 mi NE 17.3 mph 23.0 mph N/A   Overcast
10:49 PM 78.8 °F - 75.2 °F 89% 30.04 in 10.0 mi NE 13.8 mph - N/A   Overcast
10:56 PM 78.4 °F - 75.9 °F 92% 30.04 in 10.0 mi NE 16.1 mph - 0.01 in   Overcast
11:21 PM 78.8 °F - 75.2 °F 89% 30.03 in 10.0 mi NE 13.8 mph - N/A   Overcast
11:26 PM 78.8 °F - 75.2 °F 89% 30.03 in 10.0 mi NE 16.1 mph - N/A   Overcast
11:56 PM 78.4 °F - 75.2 °F 90% 30.02 in 10.0 mi NE 13.8 mph - N/A   Overcast